This is the latest recevied weather packets stored in our database for station/object IZ8GMP-13. If no packets are shown the sender has not sent any weather packets the latest 10 day(s).
| Time | Temp. | Humidity | Pressure | Rain* | Wind** | Luminosity | Snow |
|---|---|---|---|---|---|---|---|
| 1788417399 | 26.67° C | 72% | 1016.2 hPa | - | - | - | - |
| 1788416196 | 26.67° C | 68% | 1016.3 hPa | - | - | - | - |
| 1788414992 | 26.67° C | 69% | 1016.3 hPa | - | - | - | - |
| 1788413789 | 26.67° C | 69% | 1016.3 hPa | - | - | - | - |
| 1788412585 | 26.67° C | 69% | 1016.1 hPa | - | - | - | - |
| 1788411382 | 26.11° C | 70% | 1016 hPa | - | - | - | - |
| 1788410178 | 26.11° C | 70% | 1015.9 hPa | - | - | - | - |
| 1788408975 | 27.22° C | 66% | 1015.8 hPa | - | - | - | - |
| 1788407771 | 27.22° C | 66% | 1015.8 hPa | - | - | - | - |
| 1788405364 | 27.22° C | 70% | 1015.8 hPa | - | - | - | - |
| 1788404161 | 27.22° C | 70% | 1016 hPa | - | - | - | - |
| 1788402957 | 27.22° C | 71% | 1016.1 hPa | - | - | - | - |
| 1788401754 | 27.22° C | 70% | 1016.3 hPa | - | - | - | - |
| 1788400550 | 27.22° C | 70% | 1016.3 hPa | - | - | - | - |
| 1788399347 | 27.22° C | 70% | 1016.5 hPa | - | - | - | - |
| 1788398143 | 27.22° C | 70% | 1016.4 hPa | - | - | - | - |
| 1788396940 | 27.22° C | 69% | 1016.6 hPa | - | - | - | - |
| 1788395737 | 27.78° C | 67% | 1016.6 hPa | - | - | - | - |
| 1788394533 | 27.78° C | 67% | 1016.8 hPa | - | - | - | - |
| 1788393330 | 27.78° C | 66% | 1016.9 hPa | - | - | - | - |
| 1788392126 | 27.78° C | 65% | 1016.8 hPa | - | - | - | - |
| 1788390923 | 27.78° C | 65% | 1016.9 hPa | - | - | - | - |
| 1788389719 | 28.33° C | 64% | 1017 hPa | - | - | - | - |
| 1788388516 | 28.33° C | 64% | 1016.9 hPa | - | - | - | - |
| 1788387312 | 28.33° C | 64% | 1017 hPa | - | - | - | - |
* Rain since midnight (hover to see other rain measurements)
** Current wind speed in m/s (hover to see current wind gust speed)